NOAA 20

Last updated on Sat Mar 23 2024 00:02:17 GMT+0000 (Coordinated Universal Time)

1 43013U 17073A 24082.59115283 .00000285 00000+0 15088-3 0 9998 2 43013 98.7028 21.9510 0008150 357.4435 2.6699 14.21248409328617

Satellite not in orbit

NOAA 20